This demonstration page uses our WeatherBlox Daily Observations layout. Learn more.

Left ArrowRight Arrow

40.92945, -100.16068

Hourly Observations for November 8, 2020

Temp ( °F °C ) Dew Point ( °F °C ) Humidity (%) Winds ( mph kmh ) Pressure ( in mb ) Visibility ( mi km ) Precip ( " mm )
12:15 am 00:15 Clear 61 16 51 10.5 70 70 S 22 35 29.62 1003 10 16.0934 0 0
12:35 am 00:35 Clear 61 15.9 51 10.5 71 71 SSE 21 33 29.62 1003 10 16.0934 0 0
12:55 am 00:55 Clear 60 15.6 51 10.5 72 72 SSE 22 35 29.62 1003 10 16.0934 0 0
1:15 am 01:15 Clear 60 15.3 51 10.5 73 73 S 21 33 29.61 1003 10 16.0934 0 0
1:35 am 01:35 Clear 59 15 51 10.5 75 75 SSE 20 31 29.62 1003 10 16.0934 0 0
1:55 am 01:55 Clear 59 14.8 51 10.5 76 76 S 22 35 29.61 1003 10 16.0934 0 0
2:15 am 02:15 Clear 59 14.8 51 10.5 76 76 S 18 30 29.62 1003 10 16.0934 0 0
2:35 am 02:35 Partly Cloudy 58 14.6 51 10.5 77 77 S 21 33 29.6 1002 10 16.0934 0 0
2:55 am 02:55 Clear 58 14.5 51 10.3 76 76 S 23 37 29.6 1002 10 16.0934 0 0
3:15 am 03:15 Clear 58 14.3 50 10.1 76 76 S 23 37 29.59 1002 10 16.0934 0 0
3:35 am 03:35 Clear 57 14.1 50 10 77 77 S 25 41 29.58 1002 10 16.0934 0 0
3:55 am 03:55 Clear 57 13.8 49 9.6 76 76 S 26 43 29.59 1002 10 16.0934 0 0
4:15 am 04:15 Clear 56 13.6 49 9.5 76 76 S 28 44 29.59 1002 10 16.0934 0 0
4:35 am 04:35 Clear 56 13.4 48 9.1 75 75 S 25 41 29.58 1002 10 16.0934 0 0
4:55 am 04:55 Clear 56 13.1 48 9 76 76 S 25 41 29.58 1002 10 16.0934 0 0
5:15 am 05:15 Clear 55 13 48 9 77 77 S 29 46 29.57 1001 10 16.0934 0 0
5:35 am 05:35 Clear 55 13 48 8.8 76 76 SSE 28 44 29.56 1001 10 16.0934 0 0
5:55 am 05:55 Clear 55 12.8 48 8.8 77 77 S 24 39 29.59 1002 10 16.0934 0 0
6:15 am 06:15 Clear 55 12.5 48 8.9 79 79 S 24 39 29.59 1002 10 16.0934 0 0
6:35 am 06:35 Clear 54 12.2 48 8.9 80 80 S 23 37 29.57 1001 10 16.0934 0 0
6:55 am 06:55 Clear 54 12.2 48 9 81 81 SSE 25 41 29.57 1001 10 16.0934 0 0
7:15 am 07:15 Clear 54 12.1 48 9 82 82 S 28 44 29.57 1001 10 16.0934 0 0
7:35 am 07:35 Sunny 54 12.2 48 9.1 82 82 SSE 28 44 29.57 1001 10 16.0934 0 0
7:55 am 07:55 Partly Cloudy 55 12.5 49 9.2 80 80 S 28 44 29.59 1002 10 16.0934 0 0
8:15 am 08:15 Partly Cloudy 55 12.8 49 9.4 80 80 SSE 28 44 29.59 1002 10 16.0934 0 0
8:35 am 08:35 Partly Cloudy 56 13.2 49 9.5 78 78 S 33 54 29.58 1002 10 16.0934 0 0
8:55 am 08:55 Mostly Cloudy 57 13.8 49 9.6 76 76 SSE 26 43 29.58 1002 10 16.0934 0 0
9:15 am 09:15 Mostly Cloudy 58 14.2 49 9.7 75 75 S 28 44 29.57 1001 10 16.0934 0 0
9:35 am 09:35 Cloudy 59 14.8 50 9.8 72 72 S 24 39 29.59 1002 10 16.0934 0 0
9:55 am 09:55 Cloudy 59 15.2 50 10 71 71 S 24 39 29.59 1002 10 16.0934 0 0
10:15 am 10:15 Cloudy 62 16.9 50 10.2 65 65 S 31 50 29.58 1002 10 16.0934 0 0
10:35 am 10:35 Cloudy with Haze 64 17.5 50 10 62 62 S 36 57 29.57 1002 5 8.0467 0 0
10:55 am 10:55 Mostly Cloudy 65 18.4 50 10 58 58 S 30 48 29.57 1001 7 11.26538 0 0
11:15 am 11:15 Partly Cloudy 66 18.9 50 10 56 56 S 37 59 29.56 1001 10 16.0934 0 0
11:35 am 11:35 Partly Cloudy 67 19.6 50 10.1 54 54 S 32 52 29.57 1001 10 16.0934 0 0
11:55 am 11:55 Mostly Cloudy 68 19.8 50 10 53 53 S 31 50 29.56 1001 10 16.0934 0 0
12:15 pm 12:15 Mostly Cloudy 70 21.1 50 10 49 49 SSW 28 44 29.56 1001 10 16.0934 0 0
12:35 pm 12:35 Partly Cloudy 70 21.1 49 9.6 48 48 S 28 44 29.54 1000 10 16.0934 0 0
12:55 pm 12:55 Sunny 70 21.3 49 9.6 47 47 S 28 44 29.54 1000 10 16.0934 0 0
1:15 pm 13:15 Partly Cloudy 71 21.7 49 9.6 46 46 SSW 28 44 29.54 1000 10 16.0934 0 0
1:35 pm 13:35 Partly Cloudy 72 22.1 49 9.6 45 45 S 24 39 29.54 1000 10 16.0934 0 0
1:55 pm 13:55 Mostly Cloudy 72 22.2 49 9.7 45 45 SSW 22 35 29.53 1000 10 16.0934 0 0
2:15 pm 14:15 Partly Cloudy 71 21.6 49 9.6 46 46 S 23 37 29.54 1000 10 16.0934 0 0
2:35 pm 14:35 Partly Cloudy 72 22.4 49 9.7 45 45 S 26 43 29.53 1000 10 16.0934 0 0
2:55 pm 14:55 Partly Cloudy 71 21.7 49 9.7 47 47 S 20 31 29.55 1001 10 16.0934 0 0
3:15 pm 15:15 Mostly Cloudy 72 22 49 9.6 45 45 S 24 39 29.55 1001 10 16.0934 0 0
3:35 pm 15:35 Cloudy 71 21.6 49 9.7 47 47 S 22 35 29.56 1001 10 16.0934 0 0
3:55 pm 15:55 Cloudy 73 22.5 49 9.7 44 44 S 22 35 29.56 1001 10 16.0934 0 0
4:15 pm 16:15 Mostly Cloudy 72 22 49 9.7 46 46 S 17 28 29.57 1001 10 16.0934 0 0
4:35 pm 16:35 Partly Cloudy 70 21 50 10 50 50 S 13 20 29.57 1002 10 16.0934 0 0
4:55 pm 16:55 Mostly Cloudy 70 21.1 50 10.2 50 50 S 16 26 29.57 1001 10 16.0934 0 0
5:15 pm 17:15 Mostly Cloudy with Light Rain 66 19 54 12.4 66 66 S 8 13 29.59 1002 7 11.26538 0.01 0.254
5:35 pm 17:35 Cloudy 66 18.7 54 12.2 66 66 SSE 10 17 29.59 1002 10 16.0934 0.01 0.254
5:55 pm 17:55 Cloudy with Light Rain 66 18.7 54 12 65 65 SSE 22 35 29.6 1003 10 16.0934 0.01 0.254
6:15 pm 18:15 Cloudy with Heavy Rain 59 15.2 56 13.1 87 87 SW 15 24 29.66 1005 2 3.21868 0.34 8.636
6:35 pm 18:35 Cloudy with Light Rain 62 16.7 56 13.4 81 81 S 13 20 29.63 1003 10 16.0934 0.4 10.16
6:55 pm 18:55 Cloudy 63 17.3 56 13.2 77 77 SSE 14 22 29.63 1003 10 16.0934 0.4 10.16
7:15 pm 19:15 Cloudy 63 17.4 55 12.5 73 73 S 12 19 29.64 1004 10 16.0934 0 0
7:35 pm 19:35 Partly Cloudy 63 17.1 54 12.3 74 74 S 13 20 29.63 1003 10 16.0934 0 0
7:55 pm 19:55 Clear 63 17.2 54 12.2 73 73 S 23 37 29.63 1003 10 16.0934 0.01 0.254
8:15 pm 20:15 Clear 63 17.4 54 12.1 71 71 S 22 35 29.62 1003 10 16.0934 0 0
8:35 pm 20:35 Clear 64 17.5 54 12.1 71 71 S 22 35 29.62 1003 10 16.0934 0 0
8:55 pm 20:55 Clear 63 17.4 54 12.1 71 71 S 23 37 29.64 1004 10 16.0934 0 0
9:15 pm 21:15 Clear 62 16.8 53 11.9 73 73 SSE 21 33 29.64 1004 10 16.0934 0 0
9:35 pm 21:35 Clear 62 16.7 54 12 74 74 S 23 37 29.64 1004 10 16.0934 0 0
9:55 pm 21:55 Clear 62 16.5 54 12.1 75 75 S 25 41 29.64 1004 10 16.0934 0 0
10:15 pm 22:15 Clear 62 16.5 54 12.3 76 76 S 25 41 29.65 1004 10 16.0934 0 0
10:35 pm 22:35 Clear 62 16.5 55 12.5 77 77 S 24 39 29.65 1004 10 16.0934 0 0
10:55 pm 22:55 Clear 62 16.5 55 12.5 77 77 S 25 41 29.64 1004 10 16.0934 0 0
11:15 pm 23:15 Clear 61 16.2 55 12.6 79 79 S 24 39 29.65 1004 10 16.0934 0 0
11:35 pm 23:35 Partly Cloudy 61 16 55 12.5 80 80 S 22 35 29.65 1004 10 16.0934 0 0
11:55 pm 23:55 Partly Cloudy 60 15.8 55 12.5 81 81 S 22 35 29.64 1004 10 16.0934 0 0

Powered by AerisWeather